Location: Muenchen
(48.1800°N, 11.5800°E)
Time: 20:23:50
(UTC+02:00)

ISS - All Passes

Search period start: 26 May 2016 00:00
Search period end: 05 June 2016 00:00
Orbit: 402 x 404 km, 51.6° (Epoch: 26 May)

Date Brightness Start Highest point End Pass type
(mag) Time Alt. Az. Time Alt. Az. Time Alt. Az.
26 May - 01:25:15 10° W 01:28:27 48° N 01:31:38 10° ENE visible
26 May - 03:02:02 10° WNW 03:05:13 50° N 03:08:26 10° E visible
26 May - 04:38:31 10° WNW 04:41:42 51° SSW 04:44:53 10° SE visible
26 May - 22:56:12 10° SW 22:59:14 36° SE 23:02:16 10° ENE visible
27 May - 00:32:21 10° W 00:35:35 59° NNW 00:38:50 10° ENE visible
27 May - 02:09:12 10° WNW 02:12:21 44° N 02:15:31 10° E visible
27 May - 03:45:42 10° WNW 03:48:59 81° SSW 03:52:14 10° ESE visible
27 May - 05:22:53 10° W 05:25:01 16° SW 05:27:09 10° S daylight
27 May - 22:04:00 10° SSW 22:06:36 22° SE 22:09:13 10° E visible
27 May - 23:39:30 10° WSW 23:42:46 81° NNW 23:46:02 10° ENE visible
28 May - 01:16:19 10° WNW 01:19:27 43° N 01:22:36 10° ENE visible
28 May - 02:52:55 10° WNW 02:56:11 71° NNE 02:59:27 10° ESE visible
28 May - 04:29:36 10° W 04:32:26 27° SW 04:35:14 10° SSE visible
28 May - 21:12:23 10° SSE 21:14:02 13° SE 21:15:41 10° ESE daylight
28 May - 22:46:44 10° WSW 22:49:59 68° SSE 22:53:14 10° ENE visible
29 May - 00:23:23 10° W 00:26:33 46° N 00:29:44 10° ENE visible
29 May - 02:00:06 10° WNW 02:03:20 54° NNE 02:06:33 10° E visible
29 May - 03:36:37 10° WNW 03:39:46 44° SSW 03:42:53 10° SE visible
29 May - 21:54:08 10° SW 21:57:14 42° SSE 22:00:21 10° ENE visible
29 May - 23:30:26 10° W 23:33:39 55° NNW 23:36:53 10° ENE visible
30 May - 01:07:16 10° WNW 01:10:25 45° N 01:13:35 10° E visible
30 May - 02:43:45 10° WNW 02:47:01 71° SSW 02:50:16 10° ESE visible
30 May - 04:21:11 10° WSW 04:22:59 14° SW 04:24:46 10° S visible
30 May - 21:01:48 10° SSW 21:04:33 25° SE 21:07:19 10° E daylight
30 May - 22:37:31 10° WSW 22:40:47 73° NNW 22:44:03 10° ENE visible
31 May - 00:14:21 10° WNW 00:17:30 43° N 00:20:39 10° ENE visible
31 May - 01:50:55 10° WNW 01:54:12 78° NNE 01:57:28 10° ESE visible
31 May - 03:27:42 10° W 03:30:23 23° SW 03:33:02 10° SSE visible
31 May - 20:09:54 10° S 20:11:56 15° SE 20:13:58 10° E daylight
31 May - 21:44:40 10° WSW 21:47:56 77° SSE 21:51:12 10° ENE visible
31 May - 23:21:23 10° W 23:24:33 45° N 23:27:43 10° ENE visible
01 Jun - 00:58:04 10° WNW 01:01:19 57° NNE 01:04:32 10° E visible
01 Jun - 02:34:37 10° WNW 02:37:42 38° SSW 02:40:45 10° SE visible
01 Jun - 20:51:59 10° SW 20:55:09 48° SSE 20:58:19 10° ENE daylight
01 Jun - 22:28:24 10° W 22:31:36 52° NNW 22:34:49 10° ENE visible
02 Jun - 00:05:12 10° WNW 00:08:23 47° N 00:11:34 10° E visible
02 Jun - 01:41:41 10° WNW 01:44:56 62° SSW 01:48:09 10° SE visible
02 Jun - 03:19:30 10° WSW 03:20:49 12° SW 03:22:08 10° SSW visible
02 Jun - 19:59:31 10° SSW 20:02:24 29° SE 20:05:18 10° E daylight
02 Jun - 21:35:26 10° WSW 21:38:40 67° NNW 21:41:57 10° ENE daylight
02 Jun - 23:12:16 10° WNW 23:15:25 43° N 23:18:34 10° ENE visible
03 Jun - 00:48:48 10° WNW 00:52:05 86° NNE 00:55:21 10° ESE visible
03 Jun - 02:25:43 10° W 02:28:12 20° SW 02:30:40 10° S visible
03 Jun - 19:07:25 10° S 19:09:43 18° SE 19:12:02 10° E daylight
03 Jun - 20:42:31 10° WSW 20:45:47 87° SSE 20:49:04 10° ENE daylight
03 Jun - 22:19:16 10° WNW 22:22:26 44° N 22:25:35 10° ENE visible
03 Jun - 23:55:55 10° WNW 23:59:11 62° NNE 00:02:25 10° E visible
04 Jun - 01:32:31 10° W 01:35:30 33° SW 01:38:28 10° SSE visible
04 Jun - 18:16:26 10° SE 18:17:06 10° SE 18:17:45 10° ESE daylight
04 Jun - 19:49:44 10° SW 19:52:56 56° SSE 19:56:10 10° ENE daylight
04 Jun - 21:26:14 10° W 21:29:26 49° N 21:32:38 10° ENE daylight
04 Jun - 23:03:00 10° WNW 23:06:13 49° N 23:09:24 10° E visible
